[[{"header":{"parameterUnit":"m.s-1","parameterCategory":1,"la1":30.2991,"la2":30.254,"lo1":-89.0895,"lo2":-89.0444,"dy":0.0017,"dx":0.0017,"nx":28,"ny":28,"refTime":"2024-06-10T21:00:00:Z","depth":0,"parameterNumber":2,"parameterNumberName":"U-component_of_WINDS"},"data":[0,0,0,0,0,0,0,0,0,0,0,0,0,0,0,0,0,0,0,0,0,0,0,0,0,0,0,0,0,0,0,0,0,0,0,0,0,0,0,0,0,0,0,0,0,0,0,0,0,0,0,0,0,0,0,0,0,0,-3.0954,-3.0954,0,-3.0972,-3.0972,-3.0972,-3.0843,-3.0839,-3.0835,-3.0832,-3.0852,-3.0856,-3.086,0,0,0,0,0,0,0,0,0,0,0,0,0,-3.0807,-3.0811,-3.0954,-3.0954,-3.0954,-3.0972,-3.0972,-3.0972,-3.0843,-3.0839,-3.0834,-3.083,-3.0851,-3.0855,-3.086,0,0,0,0,0,0,0,0,0,0,0,0,0,-3.0853,-3.0812,-3.0954,-3.0892,-3.0887,-3.0972,-3.0972,-3.0972,-3.0844,-3.0839,-3.0833,-3.0828,-3.0849,-3.0855,-3.0861,-3.1006,0,0,-3.0879,-3.0881,0,0,0,0,0,0,0,0,-3.0851,-3.0859,-3.0901,-3.0896,-3.0891,-3.0899,-3.0928,-3.0984,-3.0846,-3.086,-3.0832,-3.0826,-3.0872,-3.0876,-3.0891,-3.1007,-3.1008,-3.0879,-3.0883,-3.0885,-3.0887,0,0,0,0,0,0,0,-3.0848,-3.0857,-3.0961,-3.0902,-3.0895,-3.0863,-3.0864,-3.0938,-3.0897,-3.0859,-3.0849,-3.0853,-3.0868,-3.0886,-3.0891,-3.1008,-3.0879,-3.0884,-3.0888,-3.089,-3.1244,-3.125,0,0,0,0,0,0,-3.0853,-3.0855,-3.096,-3.0961,-3.0857,-3.087,-3.0871,-3.0902,-3.0896,-3.0889,-3.0858,-3.0847,-3.0879,-3.0884,-3.0891,-3.1061,-3.0885,-3.0891,-3.0894,-3.1238,-3.1245,-3.1252,0,0,0,0,0,0,-3.085,-3.0863,-3.096,-3.0906,-3.0916,-3.0879,-3.0915,-3.0905,-3.0923,-3.0895,-3.0887,-3.0883,-3.0874,-3.0883,-3.0978,-3.106,-3.0893,-3.0899,-3.1231,-3.124,-3.1248,-3.1403,0,0,0,0,0,0,-3.0846,-3.0863,-3.0918,-3.0908,-3.0919,-3.1047,-3.092,-3.091,-3.0933,-3.0919,-3.0917,-3.0911,-3.0871,-3.097,-3.0984,-3.1065,-3.0903,-3.1224,-3.1235,-3.1246,-3.139,-3.1416,-3.1438,0,0,0,0,0,-3.0842,-3.0962,-3.0922,-3.0935,-3.0987,-3.1052,-3.1058,-3.1009,-3.094,-3.0995,-3.0977,-3.0911,-3.1049,-3.0981,-3.0996,-3.108,-3.1218,-3.1232,-3.1245,-3.138,-3.1411,-3.1437,0,0,0,0,0,0,-3.0983,-3.0959,-3.0915,-3.1035,-3.1047,-3.103,-3.1098,-3.1044,-3.1076,-3.1062,-3.0999,-3.1,-3.1106,-3.1102,-3.1027,-3.122,-3.1121,-3.1138,-3.1219,-3.1248,-3.1271,-3.1271,-3.0908,0,0,0,0,0,-3.1028,-3.1083,-3.1059,-3.1167,-3.1175,-3.1136,-3.1163,-3.1123,-3.1133,-3.1138,-3.1126,-3.1139,-3.1184,-3.1216,-3.1256,-3.1388,-3.1386,-3.1453,-3.1477,-3.1496,-3.1512,-3.1581,-3.1611,-3.1295,-3.1295,-3.1295,0,0,-3.1122,-3.1116,-3.1154,-3.1195,-3.12,-3.1258,-3.1141,-3.1208,-3.125,-3.1148,-3.1237,-3.123,-3.1239,-3.1354,-3.1403,-3.1354,-3.1598,-3.1513,-3.1529,-3.1534,-3.1598,-3.1628,-3.1654,-3.1304,-3.1302,-3.1301,0,0,-3.1323,-3.1324,-3.1414,-3.142,-3.1428,-3.1401,-3.1423,-3.1415,-3.1405,-3.1494,-3.1418,-3.1467,-3.1548,-3.1557,-3.1573,-3.1776,-3.1716,-3.1791,-3.1915,-3.1983,-3.2008,-3.203,-3.2102,-3.2129,-3.1806,-3.1806,-3.1807,0,-3.144,-3.1524,-3.1467,-3.1539,-3.1559,-3.1468,-3.1558,-3.1567,-3.1589,-3.1605,-3.1548,-3.1646,-3.1646,-3.1761,-3.1811,-3.1826,-3.1849,-3.1791,-3.2009,-3.203,-3.2049,-3.2118,-3.2145,-3.1815,-3.1814,-3.1813,-3.1813,0,-3.1666,-3.1726,-3.1797,-3.1819,-3.1847,-3.1928,-3.1884,-3.1919,-3.1877,-3.1856,-3.1947,-3.1943,-3.1981,-3.2005,-3.1966,-3.2115,-3.2084,-3.2019,-3.1919,-3.209,-3.2153,-3.2179,-3.1828,-3.1825,-3.1822,-3.182,0,0,-3.1959,-3.1947,-3.1974,-3.1983,-3.1984,-3.2029,-3.2105,-3.2141,-3.2173,-3.219,-3.2252,-3.2321,-3.2261,-3.2279,-3.2239,-3.2299,-3.246,-3.2226,-3.2225,-3.227,-3.2624,-3.2674,-3.2705,-3.242,-3.2424,-3.2428,-3.2624,0,-3.2155,-3.2285,-3.2235,-3.2369,-3.2423,-3.2336,-3.2402,-3.241,-3.2392,-3.2436,-3.2415,-3.2465,-3.2382,-3.2392,-3.2447,-3.2429,-3.253,-3.2414,-3.2478,-3.2481,-3.2479,-3.2738,-3.2791,-3.2975,-3.2648,-3.2652,-3.2655,0,-3.2402,-3.2428,-3.2567,-3.2558,-3.2579,-3.2639,-3.2668,-3.271,-3.2717,-3.27,-3.2719,-3.2666,-3.2739,-3.2639,-3.274,-3.2662,-3.2685,-3.2679,-3.2685,-3.269,-3.2579,-3.2751,-3.3033,-3.3061,-3.2694,-3.2691,-3.2688,0,-3.2602,-3.2672,-3.2764,-3.2773,-3.2765,-3.2809,-3.2808,-3.2809,-3.2834,-3.2859,-3.2874,-3.2908,-3.2927,-3.2954,-3.2911,-3.2842,-3.3019,-3.2915,-3.3007,-3.3008,-3.3049,-3.3047,-3.334,-3.3063,-3.3062,-3.3062,-3.3061,0,-3.2827,-3.2915,-3.2853,-3.291,-3.3006,-3.2948,-3.3045,-3.3034,-3.3036,-3.3088,-3.3015,-3.3067,-3.3006,-3.3052,-3.3018,-3.3107,-3.3116,-3.3104,-3.3094,-3.3111,-3.3113,-3.3126,-3.3112,-3.3069,-3.3067,-3.3066,-3.3065,0,-3.3067,-3.3029,-3.3123,-3.3107,-3.3105,-3.3176,-3.3162,-3.3214,-3.319,-3.3258,-3.327,-3.3233,-3.3283,-3.3242,-3.3291,-3.3268,-3.3386,-3.3358,-3.3384,-3.3376,-3.3471,-3.3463,-3.3783,-3.3822,-3.352,-3.3523,-3.3525,0,-3.3213,-3.3279,-3.327,-3.3299,-3.3302,-3.3352,-3.3376,-3.3321,-3.335,-3.3362,-3.3412,-3.3455,-3.3487,-3.357,-3.3548,-3.3584,-3.3556,-3.3666,-3.3562,-3.3576,-3.3558,-3.3555,-3.3562,-3.3688,-3.3691,-3.3694,-3.3697,0,-3.3478,-3.3455,-3.3493,-3.3525,-3.3556,-3.3578,-3.3594,-3.3623,-3.3567,-3.3603,-3.3652,-3.3677,-3.3725,-3.3769,-3.3798,-3.3796,-3.3738,-3.3729,-3.3753,-3.3771,-3.3783,-3.3778,-3.3442,-3.3723,-3.372,-3.3718,-3.3717,-3.3716,-3.3675,-3.3729,-3.3731,-3.3775,-3.3782,-3.3799,-3.3846,-3.3828,-3.3868,-3.3903,-3.3868,-3.3928,-3.3932,-3.3964,-3.3969,-3.4015,-3.397,-3.4004,-3.4012,-3.4022,-3.4035,-3.3776,-3.402,-3.4019,-3.4019,-3.4018,-3.4017,0,-3.3936,-3.3932,-3.3973,-3.3998,-3.4033,-3.3974,-3.3989,-3.4022,-3.4075,-3.4084,-3.4116,-3.4173,-3.4214,-3.4195,-3.4231,-3.4272,-3.4246,-3.4283,-3.428,-3.4281,-3.4074,-3.405,-3.4304,-3.4304,-3.4304,-3.4303,-3.4303,-3.4303,-3.4075,-3.4164,-3.4142,-3.4232,-3.4227,-3.4285,-3.4299,-3.4314,-3.432,-3.4386,-3.442,-3.4407,-3.4404,-3.4439,-3.4475,-3.4468,-3.4485,-3.4532,-3.4516,-3.4323,-3.4295,-3.4268,-3.4246,-3.4536,-3.4537,-3.4719,-3.472,-3.4722]},{"header":{"parameterUnit":"m.s-1","parameterCategory":1,"la1":30.2991,"la2":30.254,"lo1":-89.0895,"lo2":-89.0444,"dy":0.0017,"dx":0.0017,"nx":28,"ny":28,"refTime":"2024-06-10T21:00:00:Z","depth":0,"parameterNumber":3,"parameterNumberName":"V-component_of_WINDS"},"data":[0,0,0,0,0,0,0,0,0,0,0,0,0,0,0,0,0,0,0,0,0,0,0,0,0,0,0,0,0,0,0,0,0,0,0,0,0,0,0,0,0,0,0,0,0,0,0,0,0,0,0,0,0,0,0,0,0,0,-2.7775,-2.7775,0,-2.777,-2.7769,-2.7769,-2.7746,-2.7746,-2.7745,-2.7745,-2.7738,-2.7738,-2.7739,0,0,0,0,0,0,0,0,0,0,0,0,0,-2.7761,-2.7762,-2.7775,-2.7775,-2.7775,-2.777,-2.7769,-2.7769,-2.7747,-2.7746,-2.7745,-2.7745,-2.7738,-2.7738,-2.7739,0,0,0,0,0,0,0,0,0,0,0,0,0,-2.7763,-2.7762,-2.7775,-2.7763,-2.7762,-2.777,-2.7769,-2.7769,-2.7747,-2.7746,-2.7745,-2.7744,-2.7738,-2.7738,-2.7739,-2.7757,0,0,-2.774,-2.774,0,0,0,0,0,0,0,0,-2.7763,-2.7763,-2.7764,-2.7763,-2.7762,-2.7758,-2.7762,-2.7765,-2.7747,-2.7752,-2.7745,-2.7744,-2.7745,-2.7745,-2.7746,-2.7757,-2.7757,-2.774,-2.774,-2.7741,-2.7741,0,0,0,0,0,0,0,-2.7763,-2.7763,-2.7773,-2.7765,-2.7763,-2.7756,-2.7756,-2.7763,-2.7753,-2.7752,-2.775,-2.775,-2.7744,-2.7745,-2.7745,-2.7757,-2.774,-2.7741,-2.7741,-2.7741,-2.778,-2.7781,0,0,0,0,0,0,-2.7765,-2.7763,-2.7773,-2.7772,-2.7761,-2.7757,-2.7756,-2.776,-2.7753,-2.7751,-2.7751,-2.7749,-2.7745,-2.7745,-2.7745,-2.7764,-2.7741,-2.7741,-2.7741,-2.7779,-2.778,-2.7781,0,0,0,0,0,0,-2.7764,-2.7766,-2.7773,-2.7767,-2.7768,-2.7758,-2.7762,-2.776,-2.7761,-2.7752,-2.775,-2.7753,-2.7744,-2.7744,-2.7754,-2.7764,-2.7741,-2.7742,-2.7778,-2.7779,-2.778,-2.7805,0,0,0,0,0,0,-2.7764,-2.7766,-2.7774,-2.7768,-2.7768,-2.7783,-2.7763,-2.7761,-2.7762,-2.776,-2.7754,-2.7753,-2.7744,-2.7753,-2.7754,-2.7764,-2.7742,-2.7777,-2.7779,-2.778,-2.7803,-2.7806,-2.781,0,0,0,0,0,-2.7764,-2.7781,-2.7774,-2.7776,-2.7778,-2.7784,-2.7784,-2.7774,-2.7763,-2.777,-2.7764,-2.7753,-2.7763,-2.7755,-2.7755,-2.7766,-2.7777,-2.7778,-2.778,-2.7801,-2.7806,-2.7809,0,0,0,0,0,0,-2.7789,-2.778,-2.7773,-2.7789,-2.7787,-2.778,-2.7789,-2.7779,-2.778,-2.7778,-2.7764,-2.7763,-2.7774,-2.7771,-2.7762,-2.7782,-2.7768,-2.777,-2.7784,-2.7788,-2.7791,-2.7791,-2.7742,0,0,0,0,0,-2.7796,-2.7802,-2.7794,-2.7809,-2.7809,-2.7799,-2.7801,-2.7793,-2.7791,-2.779,-2.7784,-2.7782,-2.7784,-2.7786,-2.7787,-2.7802,-2.7799,-2.7809,-2.7813,-2.7816,-2.7817,-2.7822,-2.7826,-2.7786,-2.7786,-2.7786,0,0,-2.7812,-2.7808,-2.7812,-2.7814,-2.7812,-2.7817,-2.7799,-2.7806,-2.7809,-2.7791,-2.7799,-2.7795,-2.779,-2.7802,-2.7807,-2.78,-2.7827,-2.7818,-2.782,-2.782,-2.7824,-2.7828,-2.7831,-2.7788,-2.7787,-2.7787,0,0,-2.7842,-2.7841,-2.7852,-2.7849,-2.7846,-2.7839,-2.7841,-2.7835,-2.7832,-2.784,-2.7825,-2.7828,-2.7833,-2.783,-2.7829,-2.7856,-2.7844,-2.7856,-2.7874,-2.7879,-2.7882,-2.7884,-2.7892,-2.7895,-2.7858,-2.7858,-2.7858,0,-2.7861,-2.7869,-2.7858,-2.7865,-2.7865,-2.7849,-2.7859,-2.7857,-2.7855,-2.7854,-2.7846,-2.785,-2.7846,-2.7856,-2.7862,-2.7863,-2.7863,-2.7857,-2.7882,-2.7885,-2.7887,-2.7894,-2.7897,-2.786,-2.786,-2.7859,-2.7859,0,-2.7892,-2.7898,-2.7907,-2.7904,-2.7905,-2.7914,-2.7903,-2.7905,-2.7896,-2.7889,-2.7896,-2.7891,-2.789,-2.7892,-2.7884,-2.79,-2.7895,-2.7885,-2.787,-2.7892,-2.7898,-2.7901,-2.7862,-2.7861,-2.7861,-2.786,0,0,-2.7939,-2.7929,-2.7932,-2.7929,-2.7923,-2.7927,-2.7933,-2.7933,-2.7934,-2.7932,-2.7936,-2.7939,-2.7929,-2.7928,-2.7919,-2.7924,-2.7942,-2.7913,-2.7912,-2.7917,-2.7956,-2.7963,-2.7966,-2.7935,-2.7935,-2.7936,-2.7956,0,-2.7967,-2.7978,-2.7967,-2.798,-2.7984,-2.7967,-2.7972,-2.7968,-2.7962,-2.7963,-2.7955,-2.7957,-2.7945,-2.7943,-2.7947,-2.7939,-2.7949,-2.7938,-2.7937,-2.7937,-2.7937,-2.797,-2.7977,-2.7997,-2.7958,-2.7959,-2.7959,0,-2.8001,-2.7999,-2.8013,-2.8003,-2.8004,-2.801,-2.8006,-2.8008,-2.8002,-2.7997,-2.7995,-2.7984,-2.7988,-2.7974,-2.7978,-2.797,-2.7969,-2.7965,-2.7965,-2.7964,-2.7949,-2.7968,-2.8003,-2.8005,-2.7963,-2.7963,-2.7962,0,-2.8031,-2.8033,-2.804,-2.8039,-2.8029,-2.8032,-2.8028,-2.8022,-2.8021,-2.8018,-2.8017,-2.8015,-2.8013,-2.8011,-2.7998,-2.799,-2.8003,-2.7989,-2.7997,-2.7998,-2.8001,-2.8,-2.8035,-2.8002,-2.8002,-2.8002,-2.8002,0,-2.8062,-2.807,-2.8053,-2.8058,-2.8066,-2.8052,-2.806,-2.8054,-2.8048,-2.805,-2.8036,-2.8037,-2.8022,-2.8021,-2.8012,-2.8015,-2.8015,-2.801,-2.8007,-2.801,-2.8011,-2.8009,-2.8007,-2.8003,-2.8002,-2.8002,-2.8002,0,-2.8097,-2.8087,-2.8093,-2.8083,-2.808,-2.8086,-2.8076,-2.8079,-2.8071,-2.8073,-2.8073,-2.806,-2.8058,-2.8046,-2.8042,-2.8035,-2.8042,-2.8037,-2.8044,-2.8042,-2.805,-2.8049,-2.8084,-2.8087,-2.8053,-2.8054,-2.8054,0,-2.8118,-2.8123,-2.8113,-2.8113,-2.8109,-2.811,-2.8109,-2.8095,-2.8094,-2.8086,-2.809,-2.8087,-2.8084,-2.8082,-2.8072,-2.8068,-2.8062,-2.8074,-2.8061,-2.8064,-2.806,-2.8059,-2.8059,-2.8077,-2.8077,-2.8077,-2.8078,0,-2.8153,-2.8147,-2.8147,-2.8143,-2.8142,-2.8139,-2.8134,-2.8135,-2.812,-2.8119,-2.8117,-2.8115,-2.811,-2.8107,-2.8101,-2.8095,-2.8083,-2.8082,-2.8083,-2.8086,-2.8089,-2.8086,-2.805,-2.8081,-2.8081,-2.808,-2.808,-2.808,-2.8181,-2.8184,-2.8176,-2.8175,-2.817,-2.8166,-2.8167,-2.8159,-2.8157,-2.8152,-2.8144,-2.8143,-2.8134,-2.8125,-2.812,-2.8117,-2.8111,-2.8114,-2.8114,-2.8114,-2.8115,-2.809,-2.8117,-2.8116,-2.8116,-2.8116,-2.8116,0,-2.8214,-2.8208,-2.8207,-2.8201,-2.8199,-2.8189,-2.8183,-2.8182,-2.8181,-2.8174,-2.8171,-2.8168,-2.8164,-2.8152,-2.8147,-2.8147,-2.8142,-2.8146,-2.8146,-2.8144,-2.8123,-2.8121,-2.8151,-2.8151,-2.8151,-2.8151,-2.8151,-2.8151,-2.8231,-2.8236,-2.8228,-2.8229,-2.8223,-2.8221,-2.8219,-2.8214,-2.8208,-2.8205,-2.8202,-2.8194,-2.8185,-2.8178,-2.8174,-2.817,-2.8168,-2.8174,-2.8169,-2.8149,-2.8146,-2.8143,-2.8141,-2.8175,-2.8175,-2.819,-2.8191,-2.8191]}]]